Lapse_Rate
5.1 4.9 4.8 4.4 4.4 4.5 4.2 3.6 3.5 3.2 3.4 3.3 4.1 4.8 5.2 5.6 6.2 6.4 6.4 6.6 6.3 6.5 6.5 6.6 6.5 6.5 6.3 6.1 6.0 6.2 6.1 5.8 5.8 5.4 4.8 5.1 5.4 5.7 5.6 5.5 5.6 5.4 5.3 5.4 5.3 5.2 5.4 6.3 6.4 6.5 6.2 6.3 6.6 6.6
5.0 5.0 4.8 4.4 4.3 4.1 4.1 3.8 3.4 3.3 3.6 3.5 4.0 4.6 4.8 4.9 5.5 6.0 6.2 6.1 6.0 6.5 6.6 6.5 6.7 6.6 6.3 5.9 6.2 6.2 6.1 5.8 5.7 5.5 5.3 5.5 5.5 5.8 5.5 5.6 5.7 5.6 5.7 5.6 5.6 6.2 6.2 6.3 6.5 6.7 6.9 6.9 7.0 7.1
5.0 5.0 4.8 4.3 4.1 3.9 4.1 4.0 3.7 3.4 3.7 3.6 3.9 4.7 5.0 5.2 5.6 6.0 6.2 6.0 6.2 6.1 6.3 6.4 6.3 6.3 6.1 6.0 5.9 6.0 6.1 5.9 5.8 5.5 5.5 5.4 5.2 5.3 5.3 5.5 5.6 5.8 5.7 5.7 5.8 6.2 6.4 6.7 6.7 6.8 7.0 7.2 7.2 7.2
5.0 4.9 4.7 4.3 4.0 3.9 4.0 4.0 3.8 3.6 3.8 3.7 4.0 4.4 4.9 5.0 5.3 6.2 6.1 6.0 6.2 6.2 6.4 6.5 6.4 6.2 6.2 6.1 6.0 5.8 5.8 5.6 5.7 5.4 5.4 5.2 5.4 5.1 5.2 5.2 5.4 5.6 5.9 6.1 6.4 6.4 6.6 6.9 7.0 7.1 7.3 7.4 7.4 7.3
5.0 4.9 4.6 4.3 4.0 4.0 3.9 4.0 3.9 3.7 4.1 4.2 4.0 4.6 5.1 5.2 5.4 5.5 5.8 6.0 6.0 6.0 6.1 6.3 6.2 6.3 6.1 6.2 5.8 5.7 5.6 5.3 5.4 5.4 5.4 5.4 5.5 5.3 5.3 5.4 5.9 5.9 6.1 6.3 6.4 6.4 6.6 7.0 7.0 7.1 7.2 7.2 7.1 7.2
5.0 4.9 4.5 4.4 4.1 4.1 4.0 3.9 4.0 4.0 4.4 4.7 4.3 4.7 5.3 5.4 5.4 5.9 6.1 6.0 6.1 6.4 6.1 6.4 6.5 6.2 6.2 6.2 5.9 5.8 5.7 5.4 5.3 5.4 5.5 5.6 5.8 5.4 5.6 5.7 6.4 6.5 6.7 6.7 6.7 6.5 6.6 6.7 6.8 6.8 6.9 6.8 6.9 6.7
5.1 4.8 4.5 4.5 4.3 4.2 4.1 4.0 4.2 4.2 4.6 4.8 4.7 4.8 5.5 5.7 5.3 5.9 6.0 6.2 6.4 6.0 6.0 6.4 6.4 6.1 6.0 6.0 6.0 5.8 5.8 5.5 5.3 5.3 5.5 5.7 5.7 5.6 5.5 6.2 6.4 6.1 6.4 6.5 6.5 6.5 6.6 6.6 6.7 6.6 6.6 6.6 6.1 6.5
5.1 4.8 4.6 4.7 4.5 4.4 4.4 4.2 4.4 4.6 4.7 4.9 4.8 5.1 5.7 6.0 5.7 6.0 6.1 6.3 6.3 6.0 6.0 6.4 6.5 6.2 6.1 5.9 5.7 5.6 5.5 5.4 5.4 5.3 5.5 5.6 5.6 5.6 5.7 6.6 6.2 6.6 6.5 6.2 6.2 6.2 6.3 6.2 6.5 6.3 6.2 6.0 6.5 6.5
5.0 4.8 4.7 4.8 4.7 4.6 4.6 4.5 4.5 4.9 5.0 5.3 5.1 5.2 5.8 5.9 6.2 6.5 6.2 6.3 6.2 5.9 6.1 6.4 6.4 6.4 6.3 5.9 5.6 5.7 5.6 5.5 5.3 5.4 5.6 5.6 5.7 5.9 6.6 6.4 6.3 6.5 6.5 6.2 6.3 6.2 6.2 5.8 5.9 6.0 5.9 5.9 5.7 6.1
4.9 4.9 4.7 4.9 4.8 4.8 4.8 4.7 4.6 5.0 5.4 5.4 5.5 5.5 5.9 6.0 6.4 6.4 6.5 6.1 5.8 5.9 5.9 6.3 6.5 6.2 6.2 6.0 5.9 5.8 5.6 5.7 5.6 5.5 5.6 5.5 6.5 6.9 6.5 6.4 6.4 6.4 6.3 6.4 6.4 6.0 5.9 6.2 6.4 6.4 6.2 5.9 5.8 6.0
4.7 4.7 4.7 4.8 5.0 5.1 5.1 4.9 4.7 5.1 5.5 5.6 5.6 5.3 6.0 6.2 6.4 6.5 6.5 6.4 6.0 6.0 6.2 6.6 6.7 6.4 6.4 6.2 5.8 5.8 5.8 5.7 5.7 5.7 5.7 6.0 6.9 6.9 6.8 6.5 6.4 6.4 6.5 6.5 6.2 6.2 6.2 6.3 6.6 6.6 6.4 6.1 5.9 5.8
4.8 4.7 4.8 4.8 5.0 5.1 5.3 5.0 4.8 5.0 5.3 5.6 5.4 5.9 6.0 6.2 6.5 6.6 6.3 6.2 6.1 6.0 6.6 7.3 7.1 6.7 6.2 6.0 6.0 5.9 5.8 5.9 6.1 6.0 6.0 6.5 7.0 7.0 7.1 7.0 6.8 6.6 6.6 6.5 6.5 6.5 6.5 6.6 6.4 6.3 6.3 6.3 6.0 5.7
4.8 4.9 4.8 4.8 4.9 5.2 5.5 5.3 5.0 5.0 5.3 5.6 5.8 5.7 5.8 6.3 6.5 6.4 6.0 5.8 6.5 6.9 6.9 6.9 7.0 6.2 6.2 6.1 5.9 6.0 5.8 6.0 6.0 6.1 6.6 7.0 7.0 7.2 7.2 7.2 7.0 6.8 6.7 6.8 6.7 6.6 6.8 6.8 6.8 6.5 6.4 6.1 5.8 5.5
4.7 4.8 4.9 5.0 5.0 5.2 5.4 5.6 5.4 5.2 5.4 5.6 5.7 6.0 6.2 6.2 5.8 5.7 5.6 6.2 6.5 7.0 7.0 6.9 6.5 6.2 6.1 6.1 6.0 6.1 5.7 6.3 6.4 6.5 7.3 7.3 7.3 7.3 7.2 7.1 7.2 7.3 7.1 6.9 6.8 6.7 6.8 6.8 6.7 6.5 6.0 5.9 5.6 5.4
4.8 4.8 4.9 5.0 4.9 5.2 5.3 5.6 5.7 5.5 5.3 5.7 5.8 5.9 5.9 5.7 5.6 5.6 5.6 6.1 6.4 6.5 6.6 6.4 6.5 6.3 6.2 6.1 6.3 6.3 6.1 6.2 6.7 7.4 7.5 7.6 7.5 7.6 7.6 7.4 7.3 7.2 7.2 7.0 6.7 6.4 6.5 6.4 6.3 6.2 5.8 5.6 5.6 5.6
4.8 4.9 4.8 4.8 4.9 5.1 5.3 5.4 5.8 5.7 5.2 5.3 5.5 5.7 5.9 6.1 5.9 5.6 5.5 6.1 6.2 6.4 6.3 6.1 6.1 6.0 6.1 6.1 6.4 6.7 6.4 7.0 7.6 7.6 7.6 7.5 7.4 7.4 7.6 7.6 7.5 7.3 7.2 7.1 6.7 6.2 6.0 6.1 6.1 6.0 5.9 5.8 5.6 5.3
4.9 5.1 5.1 4.9 5.0 5.1 5.3 5.4 5.8 5.8 5.5 5.2 5.4 5.6 5.7 5.8 5.9 5.8 5.6 5.7 5.7 5.9 5.9 6.3 6.1 6.1 6.3 6.2 6.2 6.6 7.2 7.8 7.7 7.5 7.4 7.2 7.1 7.3 7.3 7.5 7.5 7.4 7.2 7.0 6.7 6.3 6.0 6.0 5.9 5.8 5.8 5.8 5.4 5.3
4.9 5.1 5.2 5.0 4.9 5.0 5.4 5.4 5.6 5.6 5.6 5.3 5.1 5.2 5.3 5.4 5.9 5.8 5.8 5.6 5.8 6.0 5.9 6.1 6.2 6.2 6.3 6.5 6.9 7.8 7.6 7.2 7.1 7.2 7.1 7.0 7.1 7.1 7.2 7.3 7.3 7.2 7.0 6.6 6.3 6.0 6.1 6.0 6.1 5.9 5.7 5.5 5.4 5.3
5.1 5.2 5.1 5.0 4.9 4.9 5.1 5.5 5.3 5.4 5.5 5.4 5.2 5.1 5.2 5.2 5.1 5.5 5.8 5.7 5.9 5.8 5.9 6.0 6.0 6.0 6.1 6.2 6.8 7.2 7.3 7.4 7.2 7.0 6.8 6.8 6.8 6.9 7.1 7.2 7.1 7.0 6.7 6.3 5.8 5.8 5.8 6.0 5.9 5.7 5.7 5.6 5.4 5.5
5.1 5.3 5.3 4.9 4.7 4.7 4.9 5.2 5.0 5.2 5.5 5.4 5.1 5.1 5.0 5.1 5.1 5.0 5.1 5.5 5.8 5.7 5.9 5.6 5.5 5.8 6.0 6.1 6.4 6.7 7.0 7.3 7.3 7.2 7.0 6.8 6.8 7.0 6.9 7.1 7.3 7.0 6.6 6.2 5.9 5.9 5.9 5.9 5.6 5.6 5.6 5.4 5.5 5.6
5.1 5.3 5.3 5.2 4.7 4.6 4.8 4.9 4.9 5.0 5.1 5.1 5.0 4.9 4.9 4.9 4.9 4.8 4.7 4.9 5.2 5.4 5.8 6.3 6.2 5.4 5.6 6.1 6.2 6.7 6.7 6.7 7.0 7.2 7.0 6.8 6.8 6.9 6.9 7.1 7.3 7.1 6.5 6.2 6.1 5.9 5.9 5.9 5.8 5.8 5.6 5.5 5.5 5.6
5.0 5.2 5.3 4.8 4.6 4.9 5.4 5.2 4.7 5.1 4.9 4.8 4.8 4.6 4.6 4.7 4.5 4.2 4.4 4.6 4.7 5.1 5.5 6.1 6.1 6.4 6.1 5.9 6.2 6.3 6.6 6.6 6.8 6.9 6.8 6.7 6.7 6.7 6.8 6.9 7.0 6.9 6.5 6.1 6.0 6.0 6.0 6.1 5.9 5.5 5.2 5.6 5.5 5.5
5.2 5.2 5.3 4.8 4.5 5.0 5.1 4.9 4.9 4.9 4.6 4.7 4.7 4.5 4.4 4.2 4.0 3.6 3.7 4.3 4.6 4.7 4.9 5.2 5.6 5.8 6.0 6.1 5.9 6.3 6.6 6.6 6.6 6.6 6.5 6.6 6.7 6.9 7.0 7.0 6.9 6.5 6.3 6.1 5.9 5.9 6.1 6.0 5.7 5.1 5.3 5.4 5.4 5.5
5.3 5.2 5.0 4.7 4.8 5.1 5.0 5.1 4.9 4.6 4.7 4.7 4.3 4.1 3.9 3.9 3.5 3.2 3.7 4.1 4.3 4.5 4.8 5.2 5.4 5.5 5.5 5.7 5.8 6.2 6.4 6.5 6.5 6.5 6.6 6.4 6.4 6.6 6.8 6.8 6.8 6.4 6.1 6.0 5.9 6.0 6.0 5.7 4.9 4.9 5.3 5.4 5.4 5.3
5.1 5.3 5.0 4.7 5.0 5.0 4.9 4.9 4.9 4.8 4.5 4.3 4.0 4.1 3.8 3.5 3.4 3.4 4.0 4.3 4.3 4.7 5.0 5.3 5.7 5.8 5.8 5.6 5.8 5.9 6.0 6.1 6.2 6.4 6.4 6.5 6.2 6.2 6.6 6.6 6.7 6.1 6.2 6.2 6.0 5.9 5.9 5.5 4.6 4.6 4.8 5.1 5.1 4.9
5.1 4.7 4.9 4.9 4.9 5.0 4.8 4.8 4.7 4.6 4.3 4.0 4.0 3.9 3.7 3.4 3.6 4.1 4.5 4.6 4.8 5.2 5.6 5.8 5.8 5.8 6.0 5.9 5.6 5.7 5.8 5.8 5.9 6.1 6.3 6.2 6.2 6.1 6.1 6.2 6.4 6.3 6.2 6.1 5.9 5.9 5.7 5.0 4.4 4.4 4.6 4.7 4.5 4.7
4.9 5.0 5.2 5.2 5.1 4.9 4.7 4.5 4.3 4.1 4.0 3.9 4.0 3.8 3.6 3.7 4.1 4.6 4.8 5.1 5.5 5.6 5.7 5.9 6.0 6.0 6.2 5.9 5.8 5.7 5.7 5.8 5.9 6.0 5.9 6.0 6.1 6.0 6.1 6.2 6.2 6.0 6.1 6.1 5.8 5.4 5.3 4.8 4.4 4.3 4.3 4.4 4.8 4.9
5.0 5.2 5.0 5.0 4.9 4.8 4.5 4.5 4.3 4.1 4.0 4.0 3.8 3.8 3.9 4.1 4.7 4.8 5.1 5.5 5.6 5.5 5.6 5.7 6.0 6.2 6.3 6.6 6.2 6.0 5.8 5.9 5.7 5.8 5.8 5.9 6.0 6.1 6.1 6.1 6.1 5.9 5.5 5.7 5.5 5.2 5.0 4.5 4.1 4.1 4.4 4.7 4.9 4.9
5.5 5.4 5.2 5.2 5.0 4.7 4.7 4.4 4.3 4.2 4.1 3.9 3.8 3.8 4.1 4.6 4.8 5.0 5.3 5.5 5.6 5.7 5.8 5.8 5.8 6.1 6.4 6.6 6.6 6.3 5.9 5.8 5.7 5.5 5.6 5.7 5.9 6.1 6.1 6.1 5.8 5.7 5.2 5.2 4.9 4.7 4.2 3.9 4.1 4.6 4.8 4.9 5.0 4.9
5.4 5.2 5.1 5.0 4.9 4.7 4.5 4.3 4.3 4.1 4.0 3.9 3.9 4.2 4.6 5.0 5.2 5.4 5.5 5.6 5.7 5.7 5.7 5.7 5.6 5.9 6.2 6.6 6.3 6.1 5.8 5.6 5.4 5.4 5.5 5.6 5.6 5.7 5.7 5.7 5.7 5.4 5.0 4.8 4.7 4.8 4.8 4.9 5.1 5.2 5.2 5.3 5.3 5.5
5.5 5.3 4.9 4.8 4.6 4.3 4.2 4.1 4.1 4.0 4.0 4.0 4.2 4.6 5.0 5.5 5.9 5.9 5.7 5.6 5.6 5.5 5.4 5.4 5.4 5.7 6.1 6.5 6.2 5.8 5.5 5.4 5.3 5.4 5.5 5.6 5.8 5.5 5.4 5.6 5.3 4.9 4.7 4.7 4.8 5.0 5.3 5.2 5.2 5.4 5.3 5.4 5.5 5.6
5.1 4.9 4.9 4.7 4.4 4.1 4.0 4.1 4.1 4.1 4.1 4.3 4.7 5.1 5.5 5.8 6.2 6.2 5.8 5.6 5.4 5.5 5.5 5.6 5.7 5.9 6.2 6.3 6.0 5.7 5.5 5.3 5.2 5.3 5.5 5.6 5.6 5.3 5.1 5.0 4.9 4.8 4.9 4.9 5.0 4.8 5.0 5.3 5.6 5.3 5.2 5.3 5.4 5.6
5.0 4.9 4.7 4.3 4.1 4.0 4.0 3.9 3.9 4.0 4.2 4.6 5.2 5.6 6.0 6.3 6.5 6.2 5.8 5.5 5.5 5.6 5.7 5.9 6.1 6.2 6.4 6.3 5.7 5.5 5.4 5.3 5.3 5.4 5.3 5.2 5.0 4.9 4.9 5.0 5.1 5.1 5.1 4.9 4.9 5.0 5.3 5.4 4.7 4.8 5.2 5.2 5.4 5.8
Wind_Speed
21 22 24 25 27 25 23 22 20 20 17 17 17 20 22 22 26 10 6 4 3 1 2 1 2 4 3 3 3 2 1 3 4 5 4 3 3 4 2 3 4 5 4 3 2 2 6 2 4 4 3 5 3 2
19 22 25 26 25 24 22 21 19 16 16 17 19 18 20 20 21 17 3 6 6 1 2 1 2 2 3 6 4 4 2 1 3 3 2 2 2 1 3 3 1 2 5 3 6 5 4 3 4 2 2 4 3 2
19 23 24 24 23 22 21 20 19 17 17 18 19 20 19 21 20 15 3 4 3 2 2 1 2 1 2 2 3 3 3 3 3 1 2 1 3 2 3 5 2 3 3 2 2 4 5 4 1 3 4 3 4 5
19 21 22 21 22 21 20 20 20 19 19 18 18 19 20 21 21 18 4 3 2 3 1 2 0 1 1 2 3 2 2 2 1 2 3 2 2 3 3 2 3 4 3 3 5 7 6 3 3 3 4 5 9 10
20 20 19 20 21 20 20 20 20 20 19 20 20 22 21 20 20 14 7 4 6 3 2 2 1 1 0 4 4 3 4 2 2 3 2 3 0 2 1 1 3 5 6 4 4 2 2 1 4 4 3 5 8 13
19 18 18 20 21 20 20 21 22 22 21 21 22 23 20 19 17 3 2 1 2 3 1 2 1 2 1 2 3 3 3 2 2 2 2 2 1 2 1 3 6 5 3 4 1 2 2 5 6 3 6 7 9 11
18 18 18 20 21 21 22 23 24 24 23 23 25 24 21 16 3 3 2 2 9 6 2 2 1 1 3 2 1 2 2 1 2 2 3 2 1 2 2 4 5 5 5 4 3 7 3 3 4 7 10 11 13 13
16 17 19 20 21 21 22 24 24 24 27 28 27 21 13 9 4 4 3 11 6 3 1 1 2 1 3 1 1 2 2 2 3 1 1 1 1 1 4 8 2 2 3 3 5 1 1 9 10 10 9 13 14 12
16 16 19 21 21 21 23 24 24 28 29 29 20 5 3 1 2 2 18 7 2 1 1 1 1 2 1 1 1 1 1 2 1 2 1 1 2 5 7 5 6 8 6 6 5 7 8 10 8 10 11 12 14 11
16 16 18 19 21 21 23 22 25 28 28 18 4 1 2 1 14 11 2 2 1 1 0 2 2 1 1 0 1 1 0 0 1 1 2 2 4 6 4 3 2 4 7 11 9 6 7 8 11 11 8 8 12 11
16 15 17 19 20 21 19 22 23 25 9 4 4 2 3 13 1 1 1 1 1 1 2 2 3 3 1 2 1 1 1 1 1 2 1 2 3 3 4 5 2 5 8 4 2 4 6 11 13 13 10 10 12 12
16 14 16 19 19 19 19 21 21 5 2 3 3 3 3 2 2 3 1 1 1 3 1 2 2 3 1 0 2 2 1 1 2 2 1 3 4 3 2 3 3 5 7 4 2 8 11 13 12 12 12 12 11 13
16 14 16 19 19 15 21 20 18 10 3 1 0 2 2 1 1 3 4 2 1 2 1 0 0 0 0 1 2 1 2 2 0 1 3 4 3 3 2 1 3 4 7 7 7 8 12 12 12 15 14 12 14 13
15 15 16 18 13 18 17 18 11 3 2 2 3 2 2 2 2 2 2 1 2 2 3 1 1 1 0 2 1 2 1 1 1 2 5 3 3 2 1 0 4 6 7 8 9 10 13 14 12 12 13 14 14 14
15 15 17 6 16 16 15 9 6 2 1 2 1 2 1 2 2 1 2 2 2 2 1 0 1 1 1 2 2 2 2 3 5 4 3 3 3 2 1 1 5 5 5 7 9 11 12 14 13 12 10 12 13 14
13 14 3 8 17 15 7 3 2 1 1 1 1 2 2 1 1 2 2 2 2 2 1 1 1 1 4 4 3 7 5 5 4 3 3 2 2 2 1 2 4 5 6 7 8 11 12 13 13 13 12 10 11 12
8 4 4 15 15 8 5 1 1 2 1 1 0 1 1 2 3 2 1 2 4 3 2 1 5 5 2 2 2 5 6 3 3 2 2 2 2 2 3 5 5 6 7 8 10 10 11 13 14 14 14 7 10 10
3 4 10 12 8 3 2 2 2 1 1 0 1 3 2 2 3 3 3 2 1 2 1 2 1 2 5 5 4 3 3 2 2 2 2 2 2 2 3 6 5 6 7 7 9 10 12 13 12 9 12 12 11 10
6 7 6 7 1 2 3 3 2 1 2 1 3 3 3 4 5 5 6 6 2 1 3 2 4 3 3 2 2 3 2 2 2 2 2 3 2 4 5 5 6 7 8 7 10 8 7 8 9 9 9 9 9 7
2 3 2 3 1 2 2 3 1 1 1 2 1 3 3 4 3 3 5 3 2 2 4 4 2 2 3 3 2 5 4 3 1 1 2 1 0 4 5 4 5 8 8 9 8 13 9 8 7 8 7 9 11 9
3 0 3 2 2 2 2 2 1 1 1 1 1 2 3 3 3 2 1 1 2 2 2 3 3 5 6 6 6 5 6 4 4 3 3 2 2 3 3 4 5 5 7 7 8 9 9 7 7 7 8 7 8 8
2 3 2 3 2 2 3 2 1 1 0 1 1 2 3 3 3 2 3 1 1 1 3 3 5 6 8 8 8 9 9 9 6 4 3 8 4 4 4 6 7 5 5 6 7 8 7 7 7 8 9 9 10 9
5 3 3 3 2 3 2 2 2 1 1 3 3 2 2 2 3 2 0 1 2 2 1 3 6 8 10 12 10 8 5 6 3 3 4 3 3 4 5 4 5 8 8 5 7 9 8 14 12 10 10 10 10 9
5 3 3 1 1 3 1 3 1 2 2 3 2 4 3 2 3 3 3 2 3 1 1 3 5 6 5 5 4 5 5 5 4 2 2 4 4 2 5 5 5 3 6 8 8 10 9 9 15 10 10 11 9 9
4 2 3 3 3 3 2 2 3 3 2 1 1 4 3 3 2 2 2 3 2 2 2 2 3 4 4 5 5 5 8 4 6 4 2 2 5 5 4 5 5 6 8 11 10 11 11 10 10 11 11 11 12 11
2 3 4 5 1 4 5 3 4 5 3 1 5 3 3 2 2 5 3 2 2 2 2 2 4 6 6 5 7 6 6 6 6 5 2 4 6 7 8 9 8 4 5 8 13 13 12 11 12 14 11 15 20 14
3 5 2 1 2 4 2 2 2 3 3 5 3 1 2 1 5 4 1 2 2 3 2 3 4 6 7 8 7 7 6 5 5 6 2 2 3 4 7 10 11 7 7 10 10 15 17 15 13 13 12 10 10 10
4 4 6 4 2 0 4 2 4 6 4 3 3 2 6 7 4 3 4 2 3 2 3 5 6 6 7 7 7 6 6 4 3 2 2 3 3 2 5 5 8 21 11 10 10 10 11 13 14 14 14 12 9 6
3 2 4 2 1 1 4 5 5 3 1 4 5 3 4 3 2 2 2 2 0 1 3 4 4 3 6 6 5 5 4 4 4 5 6 2 2 0 4 8 10 9 9 10 18 15 16 14 13 12 13 10 8 7
3 2 3 2 5 5 3 2 2 2 0 1 1 2 2 3 3 2 1 1 1 3 3 4 5 4 5 6 5 4 3 4 4 4 3 5 3 4 7 9 10 10 10 12 14 15 25 18 19 12 11 8 7 7
3 3 3 2 3 2 2 2 2 2 2 2 1 2 3 3 3 2 2 2 2 2 3 3 4 2 3 4 4 4 4 2 4 6 6 6 7 7 7 9 10 10 11 14 14 13 13 12 12 12 12 11 10 9
1 2 4 3 2 2 2 2 1 1 3 2 2 1 3 3 3 2 2 2 2 2 4 4 4 5 5 5 4 3 4 2 2 4 9 8 8 9 9 9 10 12 13 13 13 13 15 15 11 12 11 11 10 8
2 2 2 3 2 2 1 3 3 4 1 2 3 2 2 2 5 3 2 2 2 2 3 4 5 5 6 5 4 2 3 3 10 15 18 18 18 15 9 8 10 13 17 14 13 13 15 16 12 12 11 10 9 7
Wind_Direction
332 331 329 329 332 337 339 337 337 340 345 342 346 347 337 343 346 358 283 278 307 342 343 13 161 132 117 161 153 144 161 195 182 183 194 209 222 213 172 222 186 177 190 210 197 270 290 24 356 47 258 304 296 291
328 329 328 331 333 339 345 345 344 345 344 345 345 342 334 339 343 355 311 329 321 294 255 275 297 339 206 177 139 165 241 200 219 191 212 199 240 191 154 275 2 235 198 197 181 224 265 306 243 309 323 253 312 277
325 324 329 331 333 336 345 344 344 348 347 346 339 334 332 332 339 348 305 315 301 317 297 22 256 197 39 119 131 156 200 213 254 143 260 207 243 137 180 234 251 252 184 229 345 283 268 300 51 42 7 29 28 76
322 325 329 331 328 333 340 340 339 339 338 336 329 324 328 329 329 333 314 286 279 272 242 283 82 217 187 163 174 146 122 133 182 269 234 229 221 161 208 214 196 215 137 210 260 279 279 285 43 86 62 73 79 68
318 325 327 326 323 329 336 333 331 331 329 326 331 322 319 320 321 315 278 239 221 287 350 314 159 186 105 151 176 164 217 194 199 209 221 221 245 151 181 148 237 186 199 175 227 257 214 81 113 119 94 79 92 102
318 324 322 320 319 324 331 330 328 325 323 324 320 312 308 309 314 319 304 129 204 310 276 293 147 158 89 134 199 204 206 213 254 255 240 237 217 147 234 248 259 205 216 192 221 81 61 95 99 84 106 98 86 93
320 322 317 317 317 321 327 327 328 326 323 320 312 307 299 284 248 231 281 313 317 339 249 309 305 77 153 148 227 217 198 210 212 241 221 260 214 139 246 236 252 227 231 200 152 125 76 216 150 114 113 103 96 88
319 319 315 314 316 321 325 327 330 328 326 322 318 311 290 256 244 266 254 273 208 244 281 280 277 335 164 215 244 192 216 195 188 285 285 233 118 220 257 239 246 169 100 122 164 289 61 112 107 108 120 121 106 105
317 316 313 312 315 322 325 327 330 330 330 327 322 319 92 125 175 247 320 311 202 238 208 152 140 263 82 266 264 289 276 223 132 241 218 253 194 221 229 204 210 197 183 168 101 94 113 112 125 128 134 128 117 121
313 313 310 310 315 322 327 332 335 337 334 334 350 19 128 67 314 297 191 139 128 219 236 234 137 243 179 27 289 289 337 306 232 349 310 227 254 260 280 274 261 205 158 147 124 132 137 136 150 146 140 126 124 125
307 313 311 309 316 324 330 338 340 347 356 12 7 6 302 315 310 82 43 149 132 258 211 240 190 175 236 163 241 42 219 331 267 277 286 262 269 250 337 301 232 171 159 155 42 112 142 148 150 136 123 117 121 122
304 315 313 310 318 323 328 336 342 8 298 292 304 305 300 326 22 87 103 335 201 233 232 191 196 182 141 167 108 351 165 13 255 335 294 258 252 267 316 349 39 138 141 104 104 128 127 131 135 127 127 122 116 116
302 312 310 313 320 321 329 334 340 340 0 22 278 359 35 357 147 199 175 196 238 336 326 41 180 133 101 62 81 92 256 225 91 282 246 235 264 280 251 49 63 126 121 110 99 97 111 113 121 129 124 122 123 120
300 304 310 314 320 329 333 339 343 14 50 47 2 34 116 347 31 14 340 350 278 288 315 299 83 147 330 59 352 268 15 348 316 266 242 254 259 296 304 333 137 138 119 114 116 120 120 121 118 120 125 132 128 125
303 303 309 302 331 333 341 351 2 36 68 78 19 141 115 36 291 305 282 294 261 240 297 360 41 108 339 95 55 83 351 260 227 235 238 252 273 280 270 160 141 133 128 132 135 129 126 126 123 117 123 126 124 124
303 313 240 315 332 335 341 341 28 77 67 60 137 23 317 166 52 357 325 295 283 311 308 113 175 154 226 147 158 202 156 231 250 223 245 275 245 232 213 143 134 123 122 123 127 128 125 127 126 117 107 111 114 121
295 231 274 324 329 333 349 46 44 49 101 58 341 333 218 252 232 237 263 275 350 328 249 190 192 222 80 69 252 189 208 224 246 281 260 235 229 212 160 132 125 119 118 123 125 120 114 117 119 115 110 101 102 103
242 263 299 314 334 348 1 37 90 56 141 85 266 276 300 266 283 280 273 261 256 299 287 256 87 200 202 186 247 244 264 275 264 276 285 279 238 192 155 135 120 117 111 107 116 123 128 131 125 120 120 116 106 103
233 266 301 319 331 101 68 355 5 125 203 270 277 276 268 277 275 280 278 277 240 238 296 255 241 222 233 246 270 304 304 283 288 297 311 325 183 148 116 101 103 103 112 119 131 130 121 117 126 130 130 130 123 125
286 121 358 339 98 80 76 336 321 182 190 249 304 285 290 271 281 279 281 256 237 234 213 218 255 21 345 328 312 294 285 281 256 275 285 291 194 121 131 139 133 123 109 103 102 115 113 109 115 125 125 135 130 132
120 102 60 66 30 63 108 123 356 213 283 234 312 330 291 306 278 267 211 16 234 232 274 19 1 344 330 310 305 307 300 275 238 242 235 189 188 116 101 107 120 131 133 135 133 136 128 128 126 131 123 115 113 114
177 76 85 21 74 7 81 58 145 246 172 258 294 347 288 300 286 278 326 264 35 337 349 331 327 325 317 313 306 302 294 288 258 256 205 137 148 152 161 161 148 142 144 147 141 134 128 128 122 119 118 119 116 115
105 82 62 38 56 43 236 39 89 343 98 293 8 23 288 281 241 345 22 214 216 217 245 288 304 298 289 292 282 290 306 305 274 246 214 175 131 132 140 152 151 148 135 124 128 128 126 132 129 122 123 119 119 121
53 62 118 182 91 219 36 20 2 44 33 39 34 307 304 251 324 40 250 251 245 217 255 309 320 318 322 328 329 326 328 313 299 291 206 153 143 140 152 146 138 130 135 130 133 132 130 128 131 130 128 123 123 125
94 288 117 244 318 74 83 25 345 70 194 246 154 291 290 351 351 304 241 268 263 264 262 306 306 311 299 295 296 316 323 348 328 279 248 163 123 115 106 109 116 132 145 135 137 137 134 130 133 133 133 132 130 129
209 233 155 196 234 151 181 151 190 192 142 200 229 269 14 67 358 250 237 225 232 225 243 284 308 306 293 272 294 303 307 316 311 284 240 196 179 167 160 153 149 157 170 154 143 139 137 139 139 137 135 139 141 129
230 240 216 234 115 112 81 38 64 114 154 196 232 67 70 212 250 253 261 220 208 228 216 242 264 267 271 283 279 278 282 288 271 281 277 204 215 185 176 170 173 155 144 149 153 152 147 146 143 138 133 130 142 144
209 174 174 195 100 34 137 123 156 199 214 196 118 187 188 201 239 231 209 226 199 260 269 268 252 253 263 265 269 281 284 279 287 275 87 47 32 87 119 115 131 141 134 135 139 139 142 142 140 137 138 137 131 132
175 179 116 109 106 148 201 183 209 222 166 148 167 217 238 232 234 220 238 203 224 8 300 305 300 278 286 274 262 259 263 241 226 241 208 168 152 116 149 141 140 134 133 134 140 136 134 131 130 129 122 119 114 106
211 156 109 136 153 212 231 161 206 240 170 140 281 319 296 278 252 205 195 27 345 285 255 261 275 281 294 293 287 272 236 233 226 252 235 196 176 142 136 133 130 125 127 128 124 125 118 111 114 109 108 114 116 117
114 94 77 115 210 259 238 300 331 45 38 12 344 176 254 299 301 232 190 205 240 276 300 318 313 281 308 309 312 302 282 238 255 210 150 143 138 135 132 128 125 126 131 126 124 126 125 121 118 121 122 123 136 130
114 148 133 152 257 293 24 64 52 54 340 11 285 340 318 335 278 275 229 116 47 19 326 337 319 312 300 291 273 280 322 327 19 125 138 129 126 126 125 122 119 123 121 115 116 124 122 120 126 128 127 125 126 129
70 67 56 88 50 1 293 86 31 334 329 274 263 214 228 223 249 268 293 180 174 211 269 295 301 297 296 302 314 324 88 109 114 110 109 112 117 115 110 112 118 117 112 114 118 117 113 119 119 120 118 122 127 131